Location: Lugrin
(46.4033°N, 6.6674°E)
Time: 17:07:17
(UTC+00:00)

Cosmos 1707 - Pass Details

Date: 18 September 2020
Orbit: 515 x 530 km, 82.5° (Epoch: 30 October)

Event Time Altitude Azimuth Distance (km) Brightness Sun altitude
Rises 19:16:05 0° 346° (NNW) 2,653 6.8 -17.3°
Reaches altitude 10° 19:18:16 10° 342° (NNW) 1,758 5.9 -17.6°
Maximum altitude 19:22:01 54° 265° (W) 637 3.4 -18.2°
Drops below altitude 10° 19:25:45 10° 188° (S) 1,739 5.2 -18.8°
Enters shadow 19:25:53 - 188° (S) 1,793 5.3 -18.8°
